Torna al catalogo

COSMOS 1867 COOLANT

AttivoLEO
NORAD 39645·DEBRIS·🇷🇺 Russia

Lanciato Jul 10, 1987 da Baikonur Cosmodrome

Loading…

Prossimi Passaggi (prossime 24 ore)

TLE

AggiornatoSource: Space-Track

Epoca: Sep 14, 2026, 05:33 UTC

1 39645U 87060N   26257.23127834  .00000126  00000-0  81212-4 0  9997
2 39645  65.0098 122.4974 0019015 279.9701  79.9239 14.33871214650326

Traccia COSMOS 1867 COOLANT in tempo reale con AllMySat

Download on the App Store